Location: Monte Urtigu
(40.1333°N, 8.6167°E)
Time: 00:22:33
(UTC+00:00)

Daily predictions for brighter satellites

Satellite Brightness Start Highest point End
(mag) Time Altitude Azimuth Time Altitude Azimuth Time Altitude Azimuth
ATLAS 3B CENTAUR R/B 4.5 01:55:19 33° SE 01:55:19 33° SE 02:03:27 10° ESE
CENTAUR R/B 3.0 02:27:14 51° E 02:27:14 51° E 02:32:58 10° NE
Meteor 1-27 Rocket 4.5 02:28:05 51° E 02:28:05 51° E 02:33:28 10° NNE
Lacrosse 4 Rocket 4.5 02:32:21 10° NNE 02:34:44 14° NE 02:37:06 10° E
ARIANE 5 R/B 4.3 02:31:27 10° NE 02:35:40 27° E 02:37:43 20° SE
Cosmos 2082 Rocket 2.8 02:38:49 50° NNE 02:38:49 50° NNE 02:42:55 10° NNE
Cosmos 1452 Rocket 4.2 02:43:49 52° E 02:43:49 52° E 02:48:39 10° NNE
CZ-2C R/B 3.0 02:47:17 10° NNE 02:51:08 52° NE 02:51:08 52° NE
DELTA 2 R/B (1) 3.7 02:56:59 73° ESE 02:56:59 73° ESE 03:02:02 10° E
Atlas Centaur 2 3.9 02:57:55 32° S 02:57:55 32° S 03:03:57 10° SE
SL-24 R/B - RUBIN 2 4.5 02:57:59 46° ENE 02:57:59 46° ENE 03:01:22 10° NE
Cosmos 1459 Rocket 4.2 02:55:35 33° SSE 02:58:37 70° E 03:04:58 10° NNE
COSMOS 2406 4.0 03:01:52 39° NNW 03:01:52 39° NNW 03:05:53 10° NNE
NOSS 3-2 (A) 3.1 03:01:33 81° NNW 03:01:33 81° NNW 03:07:31 10° NNE
NOSS 3-2 (C) 3.8 03:01:05 42° SSE 03:02:21 50° ESE 03:08:07 10° NE
BREEZE-M DEB (TANK) 3.7 03:04:00 34° NE 03:04:00 34° NE 03:08:34 10° E
ATLAS CENTAUR R/B 3.7 03:08:06 19° NNW 03:08:06 19° NNW 03:10:07 10° N
Meteor 2-13 Rocket 4.5 03:04:26 10° N 03:10:37 80° E 03:16:47 10° S
Cosmos 1933 Rocket 4.1 03:10:00 10° N 03:14:22 57° E 03:18:40 10° SSE
Cosmos 2322 Rocket 4.4 03:11:25 10° N 03:15:57 24° NE 03:20:26 10° ESE
CZ-2D R/B 4.4 03:12:18 10° NNE 03:16:08 44° E 03:17:46 29° SSE
X-37B 3.1 03:18:09 20° E 03:18:09 20° E 03:19:16 10° E
H-2A ROCKET BODY 3.9 03:15:40 22° S 03:16:42 23° S 03:26:10 10° SE
IRS-1C 4.1 03:11:59 10° NNE 03:17:21 81° ESE 03:19:32 37° S
USA 238 DEB 3.8 03:14:48 31° S 03:17:55 64° ESE 03:24:32 10° NE
USA 238 3.9 03:14:52 30° S 03:18:02 63° ESE 03:24:38 10° NE
Meteor 1-11 Rocket 4.2 03:13:45 10° NNW 03:18:13 45° NW 03:18:13 45° NW
Cosmos 1980 Rocket 2.3 03:23:06 52° SSW 03:23:06 52° SSW 03:27:39 10° S
BREEZE M DEB (TANK) 4.2 03:16:14 35° WSW 03:22:39 78° NNW 03:27:32 10° NE
Cosmos 1802 Rocket 3.9 03:21:52 11° S 03:28:01 88° W 03:34:21 10° N
Cosmos 1850 Rocket 4.1 03:22:42 10° NNW 03:28:04 79° ENE 03:33:24 10° SSE
Cosmos 1725 Rocket 4.2 03:21:58 10° S 03:28:14 72° E 03:34:32 10° NNE
PAYLOAD A 4.0 03:23:36 10° N 03:28:14 55° WNW 03:28:14 55° WNW
Cosmos 1378 3.5 03:30:12 52° N 03:30:12 52° N 03:33:03 10° N
Meteor 2-9 Rocket 4.2 03:26:35 10° N 03:32:18 85° E 03:37:48 10° S
Meteor 1-19 Rocket 4.0 03:32:43 28° SSW 03:35:40 76° W 03:41:07 10° N
Cosmos 2173 Rocket 3.9 03:33:20 36° SW 03:35:42 58° W 03:41:43 10° N
Cosmos 1515 Rocket 4.2 03:37:57 40° NW 03:37:57 40° NW 03:41:22 10° N
GP-B 3.3 03:33:33 10° S 03:37:57 71° E 03:42:22 10° N
Cosmos 1461 3.9 03:42:22 31° NNW 03:42:22 31° NNW 03:45:32 10° NNE
ALOS 3.6 03:41:03 10° NNW 03:43:37 23° NW 03:43:37 23° NW
Cosmos 2278 3.6 03:40:46 10° NNW 03:46:24 71° WSW 03:52:00 10° SSE
SL-16 R/B 2.9 03:41:20 10° NNW 03:46:56 56° ENE 03:52:28 10° SE
ATLAS 3B CENTAUR R/B 4.3 03:43:26 25° SW 03:49:08 44° S 04:00:49 10° ESE
USA 234 4.4 03:43:22 10° ENE 03:49:25 39° SE 03:55:25 10° SSW
METEOR-M 4.4 03:49:27 10° N 03:54:31 44° WNW 03:56:56 27° SW
CZ-3 R/B 3.8 03:39:43 22° WSW 03:57:11 49° S 04:05:25 10° ESE
IRS-P3 4.3 03:52:04 10° N 03:57:12 50° WNW 04:00:46 19° SW
Cosmos 192 4.3 03:54:32 23° SW 03:57:35 63° WNW 04:02:30 10° NNE
Cosmos 1741 Rocket 4.0 03:54:36 10° NNW 03:59:42 56° WSW 04:04:46 10° S
Cosmos 2228 Rocket 3.1 03:56:01 10° S 04:00:30 86° E 04:04:58 10° N
Cosmos 1331 Rocket 4.2 04:00:12 25° SW 04:02:57 48° WNW 04:07:57 10° N
Cosmos 1302 Rocket 4.0 04:01:50 10° SSW 04:07:06 86° ESE 04:12:26 10° NNE
Spot 4 Rocket 3.9 04:02:16 10° NNE 04:07:25 85° WNW 04:12:33 10° SSW
YAOGAN 6 2.8 04:04:14 10° N 04:07:43 46° WNW 04:09:36 23° SW
Lacrosse 5 rocket 2.7 04:06:23 10° SSW 04:10:40 42° SE 04:14:57 10° ENE
CZ-2C R/B 2.9 04:07:09 10° S 04:12:06 43° W 04:17:11 10° NNW
Cosmos 1484 Rocket 3.4 04:09:13 10° N 04:12:52 36° WNW 04:14:54 21° SW
Lacrosse 4 Rocket 1.4 04:09:25 10° NNW 04:13:48 70° WSW 04:18:12 10° SSE
ARIANE 5 R/B 3.1 04:10:16 10° N 04:14:45 34° WNW 04:18:02 16° SW
Helios 1B rocket 3.8 04:12:22 10° NNW 04:15:11 19° WNW 04:15:11 19° WNW
CENTAUR R/B 3.5 04:14:25 20° W 04:17:35 31° NW 04:23:43 10° NNE
Meteor 1-29 3.1 04:15:15 10° N 04:18:26 46° WNW 04:21:37 10° SSW
CZ-4C R/B 3.5 04:15:00 10° SSE 04:19:12 87° WSW 04:23:34 10° NNW
Cosmos 2016 Rocket 4.4 04:13:34 10° SSW 04:19:33 42° WNW 04:25:34 10° N
CZ-2C R/B 3.2 04:15:17 10° N 04:20:56 69° WNW 04:26:16 10° SSW
COSMO-SKYMED 1 3.6 04:17:33 10° SSE 04:21:44 49° ENE 04:25:56 10° N
Cosmos 1707 Rocket 3.6 04:17:23 10° S 04:21:44 84° E 04:26:05 10° N
Cosmos 2082 Rocket 3.8 04:20:41 14° WNW 04:22:05 15° NW 04:25:21 10° NNW
Cosmos 2333 Rocket 4.0 04:18:38 10° N 04:23:46 33° ENE 04:28:49 10° ESE
BREEZE-M DEB (TANK) 3.7 04:22:31 10° SSW 04:25:43 24° SSE 04:27:45 10° E
Meteor 1-18 Rocket 4.5 04:21:21 10° SSW 04:26:48 46° WNW 04:32:12 10° N
USA 276 2.8 04:26:13 22° W 04:27:40 36° NNW 04:30:31 10° NE
CZ-2C R/B 4.1 04:27:19 10° NNW 04:29:44 14° WNW 04:30:29 13° WNW
Cosmos 1869 Rocket 3.9 04:26:00 10° NNW 04:30:08 40° W 04:34:13 10° SSW
SWAS 4.4 04:26:26 10° SSW 04:30:41 70° WNW 04:34:58 10° NNE
Cosmos 2360 Rocket 2.8 04:25:21 10° NNW 04:30:55 59° ENE 04:36:27 10° SE
Envisat 3.4 04:26:31 10° N 04:31:15 40° WNW 04:35:58 10° SW
COSMOS 2487 2.8 04:28:42 10° S 04:31:28 51° ESE 04:34:15 10° NNE
Cosmos 968 Rocket 3.4 04:27:40 10° NNW 04:32:51 82° WSW 04:37:56 10° SSE
MINOTAUR 4 R/B 4.0 04:30:11 10° SSE 04:33:40 85° ENE 04:37:10 10° NNW
Meteor 2-10 4.4 04:29:03 10° N 04:34:10 67° E 04:39:09 10° SSE
Delta 2 Rocket 4.4 04:32:45 14° WSW 04:34:40 22° SSW 04:37:19 10° SE
H-2A R/B 4.4 04:33:45 10° NE 04:38:28 29° E 04:43:07 10° SSE
Cosmos 405 Rocket 4.0 04:38:09 10° S 04:41:54 47° E 04:45:45 10° NNE
H-2A R/B 3.3 04:38:52 10° N 04:42:12 33° WNW 04:45:32 10° SW
DELTA 2 R/B (1) 3.9 04:37:45 12° W 04:42:43 53° SSW 04:48:08 10° SE
Cosmos 1066 Rocket 4.2 04:41:20 10° SSW 04:47:06 81° W 04:52:45 10° N
PSLV R/B 3.9 04:43:22 10° N 04:47:27 43° WNW 04:51:28 10° SW
Cosmos 1939 Rocket 3.7 04:43:53 10° NNE 04:47:50 55° E 04:51:40 10° S
Cosmos 1733 Rocket 3.0 04:44:48 10° N 04:49:13 79° W 04:53:35 10° S
Meteor 2-4 Rocket 4.3 04:44:06 10° SW 04:49:18 35° WNW 04:54:24 10° N
X-37B 1.4 04:49:24 11° W 04:51:53 30° SSW 04:54:28 10° SSE
Genesis I 3.2 04:49:09 10° SW 04:53:09 76° WNW 04:57:13 10° NNE
NOSS 3-2 (C) 4.3 04:48:46 10° W 04:53:32 28° NW 04:58:56 10° NNE
SL-08 R/B 4.5 04:52:38 10° SW 04:56:07 21° W 04:59:41 10° NW
SL-8 R/B 3.9 04:52:32 10° SW 04:57:17 75° SE 05:02:03 10° ENE
Cosmos 1975 4.1 04:55:34 10° NW 04:58:27 20° W 05:01:20 10° SW
Cosmos 2322 Rocket 2.4 04:54:48 10° NNW 05:00:17 51° WSW 05:05:43 10° S
